Change the Weather History Date:

Wednesday, July 10, 2013

  Actual Average (KORF) Record (KORF)
Temperature  
Mean Temperature 82 °F 80 °F  
Max Temperature 89 °F 88 °F 102 °F (1992)
Min Temperature 75 °F 72 °F 61 °F (1963)
Degree Days  
Heating Degree Days 0 0  
Month to date heating degree days 0  
Since 1 June heating degree days 6  
Since 1 July heating degree days 0  
Cooling Degree Days 17 15  
Month to date cooling degree days 144  
Year to date cooling degree days 625  
Since 1 June cooling degree days 459  
Growing Degree Days 32 (Base 50)    
Moisture  
Dew Point 73 °F    
Average Humidity 79    
Maximum Humidity 94    
Minimum Humidity 59    
Precipitation  
Precipitation 0.00 in 0.16 in 4.84 in (1939)
Month to date precipitation 1.45  
Year to date precipitation 22.73  
Snow  
Snow 0.00 in 0.00 in 0.00 in (2002)
Month to date snowfall 0.0  
Since 1 July snowfall 0.0  
Snow Depth -    
Sea Level Pressure  
Sea Level Pressure 30.03 in    
Wind  
Wind Speed 7 mph (SSW)    
Max Wind Speed 16 mph    
Max Gust Speed 20 mph    
Visibility 9 miles    
Events Thunderstorm    
T = Trace of Precipitation, MM = Missing Value Source: NWS Daily Summary

Daily Weather History Graph

Daily Weather History Graph

Search for Another Location

Airport or City:

Trip Planner

Search our weather history database for the weather conditions in past years. The results will help you decide how hot, cold, wet, or windy it might be!

Date:

Astronomy

Jul. 10, 2013 Rise Set
Actual Time 5:55 AM EDT 8:25 PM EDT
Civil Twilight 5:25 AM EDT 8:55 PM EDT
Nautical Twilight 4:47 AM EDT 9:33 PM EDT
Astronomical Twilight 4:06 AM EDT 10:14 PM EDT
Moon 8:09 AM EDT (7/10) 9:40 PM EDT (7/10)
Length of Visible Light 15h 30m
Length of Day
14h 30m
Waxing Crescent, 5% of the Moon is Illuminated
Jul 10
Waxing Crescent
Jul 15
First Quarter
Jul 22
Full
Jul 29
Last Quarter
Aug 6
New

Hourly Weather History & Observations

Time (EDT) Temp. Heat Index Dew Point Humidity Pressure Visibility Wind Dir Wind Speed Gust Speed Precip Events Conditions
12:15 AM 75.2 °F - 71.6 °F 89% 30.11 in 10.0 mi South 4.6 mph - N/A   Clear
12:35 AM 75.2 °F - 73.4 °F 94% 30.11 in 7.0 mi South 3.5 mph - N/A   Clear
12:55 AM 75.2 °F - 73.4 °F 94% 30.11 in 10.0 mi South 4.6 mph - N/A   Scattered Clouds
1:15 AM 75.2 °F - 73.4 °F 94% 30.10 in 7.0 mi South 5.8 mph - N/A   Scattered Clouds
1:35 AM 75.2 °F - 73.4 °F 94% 30.09 in 10.0 mi South 5.8 mph - N/A   Clear
1:55 AM 75.2 °F - 73.4 °F 94% 30.09 in 7.0 mi SSW 6.9 mph - N/A   Clear
2:15 AM 75.2 °F - 73.4 °F 94% 30.09 in 7.0 mi SSW 6.9 mph - N/A   Clear
2:35 AM 75.2 °F - 73.4 °F 94% 30.08 in 7.0 mi SSW 4.6 mph - N/A   Clear
2:55 AM 75.2 °F - 73.4 °F 94% 30.07 in 7.0 mi SSW 5.8 mph - N/A   Clear
3:15 AM 75.2 °F - 73.4 °F 94% 30.07 in 7.0 mi South 3.5 mph - N/A   Clear
3:55 AM 75.2 °F - 73.4 °F 94% 30.08 in 7.0 mi South 3.5 mph - N/A   Clear
4:15 AM 75.2 °F - 73.4 °F 94% 30.08 in 7.0 mi South 3.5 mph - N/A   Clear
4:35 AM 75.2 °F - 73.4 °F 94% 30.07 in 7.0 mi South 8.1 mph - N/A   Clear
4:55 AM 75.2 °F - 73.4 °F 94% 30.07 in 7.0 mi South 8.1 mph - N/A   Scattered Clouds
5:15 AM 75.2 °F - 73.4 °F 94% 30.07 in 7.0 mi South 6.9 mph - N/A   Overcast
5:35 AM 75.2 °F - 73.4 °F 94% 30.07 in 7.0 mi South 8.1 mph - N/A   Scattered Clouds
5:55 AM 75.2 °F - 73.4 °F 94% 30.07 in 10.0 mi South 6.9 mph - N/A   Clear
6:15 AM 75.2 °F - 73.4 °F 94% 30.07 in 10.0 mi South 8.1 mph - N/A   Clear
6:35 AM 75.2 °F - 73.4 °F 94% 30.07 in 7.0 mi South 5.8 mph - N/A   Clear
6:55 AM 75.2 °F - 73.4 °F 94% 30.07 in 7.0 mi South 6.9 mph - N/A   Clear
7:15 AM 75.2 °F - 73.4 °F 94% 30.07 in 5.0 mi SSW 5.8 mph - N/A   Scattered Clouds
7:35 AM 77.0 °F - 73.4 °F 89% 30.07 in 10.0 mi South 8.1 mph - N/A   Scattered Clouds
7:55 AM 77.0 °F - 73.4 °F 89% 30.08 in 7.0 mi SSW 8.1 mph - N/A   Mostly Cloudy
8:15 AM 78.8 °F - 73.4 °F 83% 30.07 in 7.0 mi SSW 9.2 mph - N/A   Overcast
8:35 AM 78.8 °F - 73.4 °F 83% 30.07 in 10.0 mi SSW 6.9 mph 16.1 mph N/A   Overcast
8:55 AM 80.6 °F 85.4 °F 73.4 °F 79% 30.07 in 7.0 mi SSW 11.5 mph - N/A   Mostly Cloudy
9:15 AM 80.6 °F 85.4 °F 73.4 °F 79% 30.07 in 7.0 mi SSW 9.2 mph 16.1 mph N/A   Mostly Cloudy
9:35 AM 82.4 °F 88.2 °F 73.4 °F 74% 30.07 in 10.0 mi SW 8.1 mph - N/A   Mostly Cloudy
9:55 AM 80.6 °F 85.4 °F 73.4 °F 79% 30.07 in 7.0 mi SSW 11.5 mph 17.3 mph N/A   Mostly Cloudy
10:15 AM 80.6 °F 85.4 °F 73.4 °F 79% 30.06 in 7.0 mi SSW 12.7 mph - N/A   Scattered Clouds
10:35 AM 82.4 °F 88.2 °F 73.4 °F 74% 30.06 in 7.0 mi SSW 8.1 mph - N/A   Scattered Clouds
10:55 AM 82.4 °F 88.2 °F 73.4 °F 74% 30.06 in 7.0 mi SSW 10.4 mph - N/A   Mostly Cloudy
11:15 AM 84.2 °F 92.3 °F 75.2 °F 74% 30.05 in 10.0 mi SW 9.2 mph 16.1 mph N/A   Mostly Cloudy
11:35 AM 86.0 °F 95.1 °F 75.2 °F 70% 30.06 in 7.0 mi SSW 9.2 mph 16.1 mph N/A   Scattered Clouds
11:55 AM 86.0 °F 95.1 °F 75.2 °F 70% 30.05 in 7.0 mi South 10.4 mph - N/A   Scattered Clouds
12:15 PM 84.2 °F 92.3 °F 75.2 °F 74% 30.05 in 7.0 mi SSW 10.4 mph 17.3 mph N/A   Mostly Cloudy
12:35 PM 87.8 °F 97.6 °F 75.2 °F 66% 30.04 in 7.0 mi SSW 10.4 mph - N/A   Mostly Cloudy
12:55 PM 87.8 °F 97.6 °F 75.2 °F 66% 30.04 in 10.0 mi SSW 9.2 mph - N/A   Scattered Clouds
1:15 PM 87.8 °F 97.6 °F 75.2 °F 66% 30.04 in 7.0 mi WSW 8.1 mph - N/A   Mostly Cloudy
1:35 PM 84.2 °F 90.9 °F 73.4 °F 70% 30.03 in 10.0 mi SSW 8.1 mph 16.1 mph N/A   Mostly Cloudy
1:55 PM 87.8 °F 97.6 °F 75.2 °F 66% 30.03 in 10.0 mi SW 10.4 mph 16.1 mph N/A Thunderstorm Scattered Clouds
2:15 PM 89.6 °F 98.2 °F 73.4 °F 59% 30.01 in 10.0 mi SSW 11.5 mph 18.4 mph N/A Thunderstorm Scattered Clouds
2:35 PM 89.6 °F 98.2 °F 73.4 °F 59% 30.01 in 10.0 mi SW 9.2 mph - N/A   Scattered Clouds
2:55 PM 87.8 °F 95.6 °F 73.4 °F 62% 30.00 in 10.0 mi SW 6.9 mph - N/A Thunderstorm Scattered Clouds
3:15 PM 89.6 °F 98.2 °F 73.4 °F 59% 29.99 in 10.0 mi SSW 10.4 mph - N/A   Scattered Clouds
3:35 PM 89.6 °F 98.2 °F 73.4 °F 59% 29.99 in 10.0 mi SSW 8.1 mph - N/A   Mostly Cloudy
3:55 PM 87.8 °F 95.6 °F 73.4 °F 62% 29.98 in 10.0 mi South 9.2 mph 17.3 mph N/A Thunderstorm Mostly Cloudy
4:15 PM 87.8 °F 95.6 °F 73.4 °F 62% 29.98 in 10.0 mi South 15.0 mph 19.6 mph N/A   Mostly Cloudy
4:35 PM 87.8 °F 95.6 °F 73.4 °F 62% 29.98 in 10.0 mi South 12.7 mph 18.4 mph N/A   Clear
4:55 PM 84.2 °F 90.9 °F 73.4 °F 70% 29.99 in 10.0 mi South 12.7 mph 18.4 mph N/A   Scattered Clouds
5:15 PM 87.8 °F 95.6 °F 73.4 °F 62% 29.97 in 10.0 mi SSW 9.2 mph 16.1 mph N/A   Scattered Clouds
5:35 PM 84.2 °F 89.6 °F 71.6 °F 66% 29.97 in 10.0 mi SSW 16.1 mph - N/A   Clear
5:55 PM 84.2 °F 90.9 °F 73.4 °F 70% 29.97 in 10.0 mi South 9.2 mph - N/A   Clear
6:15 PM 84.2 °F 90.9 °F 73.4 °F 70% 29.96 in 10.0 mi South 6.9 mph - N/A   Clear
6:35 PM 84.2 °F 90.9 °F 73.4 °F 70% 29.96 in 10.0 mi SSW 5.8 mph - N/A   Clear
6:55 PM 82.4 °F 88.2 °F 73.4 °F 74% 29.96 in 10.0 mi South 5.8 mph - N/A   Clear
7:15 PM 82.4 °F 88.2 °F 73.4 °F 74% 29.96 in 10.0 mi SSW 5.8 mph - N/A   Clear
7:35 PM 82.4 °F 88.2 °F 73.4 °F 74% 29.97 in 10.0 mi SSW 4.6 mph - N/A   Clear
7:55 PM 82.4 °F 88.2 °F 73.4 °F 74% 29.98 in 10.0 mi South 4.6 mph - N/A   Clear
8:15 PM 80.6 °F 86.2 °F 75.2 °F 84% 29.98 in 10.0 mi South 3.5 mph - N/A   Clear
8:35 PM 82.4 °F 89.5 °F 75.2 °F 79% 29.98 in 10.0 mi South 4.6 mph - N/A   Clear
8:55 PM 80.6 °F 86.2 °F 75.2 °F 84% 29.98 in 10.0 mi South 6.9 mph - N/A   Clear
9:15 PM 80.6 °F 85.4 °F 73.4 °F 79% 29.98 in 10.0 mi South 8.1 mph - N/A   Clear
9:35 PM 80.6 °F 85.4 °F 73.4 °F 79% 29.98 in 10.0 mi South 9.2 mph - N/A   Clear
9:55 PM 80.6 °F 84.6 °F 71.6 °F 74% 29.98 in 10.0 mi SSW 8.1 mph - N/A   Clear
10:15 PM 80.6 °F 84.6 °F 71.6 °F 74% 29.98 in 10.0 mi South 8.1 mph - N/A   Clear
10:35 PM 78.8 °F - 71.6 °F 78% 29.99 in 10.0 mi SSW 8.1 mph - N/A   Clear
10:55 PM 78.8 °F - 71.6 °F 78% 29.99 in 10.0 mi South 6.9 mph - N/A   Clear
11:15 PM 78.8 °F - 71.6 °F 78% 29.99 in 10.0 mi South 8.1 mph - N/A   Clear
11:35 PM 78.8 °F - 71.6 °F 78% 29.99 in 7.0 mi SSW 6.9 mph - N/A   Clear
11:55 PM 78.8 °F - 71.6 °F 78% 29.99 in 7.0 mi SSW 8.1 mph - N/A   Clear